Location: Bethel Church
(38.0159°N, 88.7292°W)
Time: 03:35:54
(UTC+00:00)

Meteor 2-16 Rocket - Pass Details

Date: 08 December 2021
Orbit: 942 x 955 km, 82.6° (Epoch: 21 January)

Event Time Altitude Azimuth Distance (km) Brightness Sun altitude
Rises 23:30:06 0° 354° (N) 3,627 7.3 -10.7°
Reaches altitude 10° 23:32:36 10° 356° (N) 2,680 6.6 -11.1°
Maximum altitude 23:38:45 78° 82° (E) 975 4.4 -12.3°
Drops below altitude 10° 23:44:52 10° 169° (S) 2,671 6.9 -13.4°
Sets 23:47:21 0° 171° (S) 3,614 7.6 -13.9°
